Regional Weather Roundup
Issued by NWS

Home | Current Version | Previous Version | Text Only | Print | Product List | Glossary On
Versions: 1 2 3 4 5 6 7 8 9 10 11 12 13 14 15 16 17 18 19 20 21 22 23 24 25 26 27 28 29 30 31 32 33 34 35 36 37 38 39 40 41 42 43 44 45 46 47 48 49 50
000
ASUS46 KSTO 051204
RWRCA

NORTHERN AND CENTRAL CA REGIONAL WEATHER ROUNDUP
NATIONAL WEATHER SERVICE SACRAMENTO CA
500 AM PDT THU MAY 05 2016

NOTE: FAIR INDICATES FEW OR NO CLOUDS BELOW 12,000 FEET WITH NO
SIGNIFICANT WEATHER AND/OR OBSTRUCTIONS TO VISIBILITY.

CAZ001-003-051300-
NORTHWEST AREA

CITY           SKY/WX    TMP DP  RH WIND       PRES   REMARKS
CRESCENT CITY  FOG       51  51 100 W3        29.88S VSB 1/4
UKIAH          CLOUDY    54  48  80 NE3       29.85F
$$

CAZ006-505>513-051300-
BAY AREA

CITY           SKY/WX    TMP DP  RH WIND       PRES   REMARKS
SANTA ROSA     CLOUDY    56  51  84 CALM      29.85S
SAN RAFAEL     N/A       55  MM  MM MISG
NAPA           MOCLDY    55  52  89 W8        29.86R
CONCORD        CLOUDY    58  50  75 W8        29.85S
OAKLAND CITY   N/A       60  MM  MM MISG
OAKLAND        CLOUDY    60  50  69 SW8       29.86S
SAN FRAN CITY  N/A       57  MM  83 MISG
SAN FRAN ARPT  MOCLDY    56  54  93 S7        29.86S
LIVERMORE      CLOUDY    58  48  69 W6        29.85S
HAYWARD        CLOUDY    60  49  66 W3        29.86S
REDWOOD CITY   N/A       MM  MM  MM MISG
MOFFETT ARPT   CLOUDY    57  50  77 SE5       29.87R
SAN JOSE ARPT  PTCLDY    57  49  74 SE9       29.86S
$$
CAZ034-037-514>518-051300-
CENTRAL COAST

CITY           SKY/WX    TMP DP  RH WIND       PRES   REMARKS
WATSONVILLE    CLOUDY    55  52  89 W5        29.88S
SALINAS        CLOUDY    56  50  80 E5        29.87S
MONTEREY       CLOUDY    55  50  83 E6        29.87S
SAN LUIS OBISP CLOUDY    58  52  80 CALM      29.90S
SANTA MARIA    MOCLDY    52  48  86 SE6       29.90F
$$
CAZ015-016-051300-
NORTHERN SACRAMENTO VALLEY

CITY           SKY/WX    TMP DP  RH WIND       PRES   REMARKS
REDDING        MOCLDY    57  53  86 CALM      29.78S
RED BLUFF      MOCLDY    56  53  90 S3        29.80R
OROVILLE         N/A     58  51  78 SE8       29.81S
$$
CAZ016>018-051300-
SOUTHERN SACRAMENTO VALLEY

CITY           SKY/WX    TMP DP  RH WIND       PRES   REMARKS
AUBURN         CLOUDY    52  48  87 SE8       29.84S
BEALE AFB      PTCLDY    56  50  80 SE13      29.79R
LINCOLN        FAIR      55  46  71 SE12G17   29.80S
MARYSVILLE     MOCLDY    56  51  84 SE14      29.80S
SAC INTL ARPT  CLOUDY    56  49  77 SE9       29.80R
MATHER AIRPORT NOT AVBL
DOWNTOWN SAC   N/A       57  MM  MM MISG
SAC EXEC ARPT  CLOUDY    57  48  72 SW7       29.82R
VACAVILLE      CLOUDY    58  47  66 CALM      29.82R
TRAVIS AFB     CLOUDY    57  49  73 W16G24    29.81R
$$
CAZ019>021-051300-
SAN JOAQUIN VALLEY

CITY           SKY/WX    TMP DP  RH WIND       PRES   REMARKS
STOCKTON       CLOUDY    58  49  72 NW8       29.84R
MODESTO        CLOUDY    58  50  75 N6        29.83S
MERCED         CLOUDY    57  50  77 NW5       29.84R
LEMOORE        CLOUDY    59  46  62 N6        29.86R
FRESNO         CLOUDY    59  48  67 N7        29.85R
HANFORD        CLOUDY    60  50  69 N3        29.84S
PORTERVILLE    CLOUDY    58  47  66 SE9       29.87S
BAKERSFIELD    CLOUDY    59  46  62 N13       29.85S
$$
CAZ011-012-071-051300-
NORTHERN MOUNTAINS

CITY           SKY/WX    TMP DP  RH WIND       PRES   REMARKS
YREKA          CLOUDY    46  44  93 N8        29.90F
MOUNT SHASTA   MOCLDY    46  42  86 CALM      29.89S
ALTURAS        CLOUDY    45  43  93 CALM      29.89F
$$
CAZ011-012-071-051300-
SIERRA NEVADA MTNS

CITY           SKY/WX    TMP DP  RH WIND       PRES   REMARKS
BLUE CANYON    CLOUDY    50  42  74 NE3       29.89F
TRUCKEE        RAIN      39  39 100 N6        29.92F WCI  35
TAHOE VLY ARPT CLOUDY    40  36  86 S5        29.91S
MAMMOTH LAKES  FAIR      32  31  96 CALM      29.93F
$$



USA.gov is the U.S. government's official web portal to all federal, state and local government web resources and services.